Location: Albany
(35.0000°S, 118.0000°E)
Time: 03:54:26
(UTC-04:00)

Cosmos 1346 Rocket - Visible Passes

Search period start: 19 April 2015 00:00
Search period end: 29 April 2015 00:00
Orbit: 527 x 565 km, 81.2° (Epoch: 18 April)

Date Brightness Start Highest point End Pass type
(mag) Time Alt. Az. Time Alt. Az. Time Alt. Az.
19 Apr 4.1 06:13:16 10° NE 06:16:05 19° E 06:19:01 10° SE visible
19 Apr 5.2 07:49:18 10° NW 07:52:29 22° WSW 07:55:36 10° SSW visible
19 Apr 3.8 17:50:38 10° S 17:54:33 51° E 17:58:27 10° NNE visible
20 Apr 4.0 06:07:34 10° NE 06:10:31 21° E 06:13:36 10° SE visible
20 Apr 5.4 07:43:55 10° NW 07:46:59 21° WSW 07:49:58 10° SSW visible
20 Apr 3.6 17:45:03 10° S 17:49:01 56° E 17:52:58 10° NNE visible
21 Apr 3.9 06:01:52 10° NE 06:04:57 23° E 06:08:09 10° SE visible
21 Apr 5.5 07:38:32 10° WNW 07:41:27 19° WSW 07:44:17 10° SSW visible
21 Apr 3.4 17:39:29 10° S 17:43:28 62° E 17:47:27 10° NNE visible
22 Apr 3.8 05:56:11 10° NNE 05:59:24 25° E 06:02:42 10° SE visible
22 Apr 5.7 07:33:11 10° WNW 07:35:56 18° WSW 07:38:36 10° SSW visible
22 Apr 3.2 17:33:54 10° S 17:37:56 68° E 17:41:56 10° NNE visible
23 Apr 5.8 07:27:49 10° WNW 07:30:25 16° WSW 07:32:53 10° SSW visible
23 Apr 3.0 17:28:19 10° S 17:32:22 74° E 17:36:24 10° NNE visible
24 Apr 5.9 07:22:29 10° WNW 07:24:54 15° WSW 07:27:09 10° SW visible
24 Apr 2.9 17:22:45 10° S 17:26:48 81° E 17:30:51 10° N visible
25 Apr 5.9 07:17:11 10° WNW 07:19:21 14° WSW 07:21:22 10° SW visible
25 Apr 2.8 17:17:10 10° S 17:21:14 89° ESE 17:25:17 10° N visible
26 Apr 6.0 07:11:55 10° W 07:13:50 13° WSW 07:15:32 10° SW visible
26 Apr 2.7 17:11:36 10° S 17:15:40 84° W 17:19:43 10° N visible
27 Apr 6.1 07:06:43 10° W 07:08:17 12° WSW 07:09:39 10° SW visible
27 Apr 2.7 17:06:24 12° SSW 17:10:06 77° W 17:14:09 10° N visible
28 Apr 6.2 07:01:39 10° W 07:02:45 11° WSW 07:03:36 10° WSW visible
28 Apr 2.7 17:03:19 43° SSW 17:04:31 70° W 17:08:33 10° N visible
